Weather in Bernburg

Germany     51°47′29″N   11°44′24″E
temp.,
°C
wind,
m/s
gust,
m/s
humid.,
%
clouds,
%
prec.,
mm/h
press.,
hPa
HPBL,
m
24 july, sat
sat2423:00+16n36790 0.0 1015100
02:00+14nnw22850 0.0 101521
05:00+13n22876 0.0 101418
08:00+17nne127236 0.0 1013197
11:00+24ese34555 0.0 1012781
14:00+28sse3446100 0.0 10111411
17:00+27ese2552100 0.0 1010346
20:00+25sse386063 0.0 1009181
25 july, sun
sun2523:00+20sse376440 0.0 1009113
02:00+19s4982100 0.8 1010167
05:00+18ssw2288100 0.2 100928
08:00+20s3681100 0.2 1010212
11:00+25ssw456299 0.0 1010851
14:00+28s345158 0.0 10101692
17:00+28sse235099 0.0 10091160
20:00+18sse3584100 8.5 1010104
26 july, mon
mon2623:00+18sw369139 1.4 1010120
02:00+16ese239094 1.4 101149
05:00+16sse3389100 0.0 101153
08:00+20s357991 0.0 1011187
11:00+25sw465633 0.0 1012892
14:00+26sw575191 0.0 10121676
17:00+26ssw575657 0.0 10121409
20:00+23sw35667 0.1 1011124
27 july, tue
tue2723:00+19sw36750 0.0 1012100
02:00+18wsw34730 0.0 101364
05:00+17sw368173 0.0 101397
08:00+19wsw35755 0.0 1014278
11:00+23sw346022 0.0 10141193
14:00+25sw4450100 0.0 10131900
17:00+25sw4449100 0.0 10121508
20:00+23sw366499 0.1 1012138
28 july, wed
wed2823:00+20ssw377371 0.0 1013176
02:00+17sw4108328 0.0 1013222
05:00+16sw37885 0.0 1013164
08:00+18wsw46740 0.0 1014345
11:00+23wsw56550 0.0 10141295
14:00+26wsw674346 0.0 10142259
17:00+25wsw675227 0.0 10141033
20:00+22wsw35675 0.2 1014130